| time (UTC) | temp F | wind direction | speed MPH | gust MPH | rain 1hr in | rain 24hr in | rain mn in | humidity % | barometer mb |
| 20260503184555 | 0 | 254 | 2.0 | 6.0 | 0.00 | 0.02 | 0.00 | 1005.7 | |
| 20260503183057 | 0 | 254 | 1.0 | 4.0 | 0.00 | 0.02 | 0.00 | 1006.0 | |
| 20260503181544 | 0 | 260 | 5.0 | 8.0 | 0.00 | 0.02 | 0.00 | 1006.1 | |
| 20260503180039 | 0 | 260 | 3.0 | 8.0 | 0.00 | 0.02 | 0.00 | 1006.2 | |
| 20260503174535 | 0 | 325 | 0.0 | 8.0 | 0.00 | 0.02 | 0.00 | 1006.2 | |
| 20260503173044 | 0 | 325 | 0.0 | 6.0 | 0.00 | 0.02 | 0.00 | 1006.5 | |
| 20260503171526 | 0 | 325 | 2.0 | 7.0 | 0.00 | 0.02 | 0.00 | 1006.7 | |
| 20260503090106 | 0 | 321 | 5.0 | 8.0 | 0.00 | 0.16 | 0.00 | 1010.8 | |
| 20260503081556 | 0 | 286 | 3.0 | 6.0 | 0.00 | 0.20 | 0.00 | 1011.2 | |
| 20260503071536 | 0 | 281 | 2.0 | 6.0 | 0.00 | 0.24 | 0.00 | 1011.4 | |
| 20260503054502 | 0 | 281 | 0.0 | 0.0 | 0.00 | 0.30 | 0.00 | 1012.2 | |
| 20260503053059 | 0 | 281 | 0.0 | 4.0 | 0.00 | 0.30 | 0.00 | 1012.2 | |
| 20260503051554 | 0 | 281 | 1.0 | 5.0 | 0.00 | 0.30 | 0.00 | 1012.3 | |
| 20260503050049 | 0 | 281 | 1.0 | 4.0 | 0.00 | 0.30 | 0.00 | 1012.4 | |
| 20260503044547 | 0 | 281 | 3.0 | 5.0 | 0.00 | 0.31 | 0.00 | 1012.5 | |
| 20260503043041 | 0 | 281 | 3.0 | 6.0 | 0.00 | 0.31 | 0.00 | 1012.5 | |
| 20260503041539 | 0 | 281 | 2.0 | 5.0 | 0.00 | 0.31 | 0.00 | 1012.5 | |
| 20260503040031 | 0 | 281 | 0.0 | 2.0 | 0.00 | 0.31 | 0.00 | 1012.4 | |
| 20260503034527 | 0 | 281 | 2.0 | 4.0 | 0.00 | 0.32 | 0.00 | 1012.4 | |
| 20260503033022 | 0 | 281 | 0.0 | 0.0 | 0.00 | 0.32 | 0.00 | 1012.5 | |
| 20260503031518 | 0 | 281 | 0.0 | 0.0 | 0.00 | 0.32 | 0.00 | 1012.6 | |
| 20260503030017 | 0 | 281 | 0.0 | 0.0 | 0.00 | 0.32 | 0.00 | 1012.5 | |
| 20260503024509 | 0 | 281 | 0.0 | 0.0 | 0.00 | 0.33 | 0.00 | 1012.6 | |
| 20260503023005 | 0 | 281 | 0.0 | 0.0 | 0.00 | 0.33 | 0.00 | 1012.7 | |
| 20260503021605 | 0 | 281 | 0.0 | 1.0 | 0.00 | 0.33 | 0.00 | 1012.7 | |
| 20260503020101 | 0 | 281 | 0.0 | 0.0 | 0.00 | 0.33 | 0.00 | 1012.8 | |
| 20260503014555 | 0 | 281 | 0.0 | 2.0 | 0.00 | 0.34 | 0.00 | 1012.8 | |
| 20260503013048 | 0 | 281 | 0.0 | 5.0 | 0.00 | 0.34 | 0.00 | 1013.0 | |
| 20260503011552 | 0 | 281 | 2.0 | 5.0 | 0.00 | 0.34 | 0.00 | 1013.1 | |
| 20260503010040 | 0 | 281 | 2.0 | 5.0 | 0.00 | 0.34 | 0.00 | 1013.3 | |
| 20260503004533 | 0 | 281 | 0.0 | 0.0 | 0.00 | 0.39 | 0.00 | 1013.3 | |
| 20260503003030 | 0 | 281 | 0.0 | 0.0 | 0.00 | 0.39 | 0.00 | 1013.4 | |
| 20260503001525 | 0 | 281 | 0.0 | 5.0 | 0.00 | 0.39 | 0.00 | 1013.5 | |
| 20260503000020 | 0 | 281 | 0.0 | 4.0 | 0.00 | 0.39 | 0.00 | 1013.6 | |
| 20260502234516 | 0 | 281 | 1.0 | 4.0 | 0.00 | 0.39 | 0.00 | 1013.8 | |
| 20260502233012 | 0 | 281 | 3.0 | 5.0 | 0.00 | 0.39 | 0.00 | 1014.0 | |
| 20260502231516 | 0 | 281 | 0.0 | 2.0 | 0.00 | 0.39 | 0.00 | 1014.0 | |
| 20260502230004 | 0 | 281 | 3.0 | 5.0 | 0.00 | 0.39 | 0.00 | 1013.9 | |
| 20260502224602 | 0 | 281 | 0.0 | 0.0 | 0.00 | 0.39 | 0.00 | 1014.0 | |
| 20260502223055 | 0 | 281 | 0.0 | 5.0 | 0.00 | 0.39 | 0.00 | 1014.0 | |
| 20260502221554 | 0 | 282 | 5.0 | 7.0 | 0.00 | 0.39 | 0.00 | 1014.1 | |
| 20260502220050 | 0 | 283 | 0.0 | 5.0 | 0.00 | 0.39 | 0.00 | 1014.1 | |
| 20260502214547 | 0 | 283 | 1.0 | 4.0 | 0.00 | 0.39 | 0.39 | 1014.2 | |
| 20260502213040 | 0 | 283 | 0.0 | 2.0 | 0.00 | 0.39 | 0.39 | 1014.2 | |
| 20260502211540 | 0 | 283 | 0.0 | 4.0 | 0.00 | 0.39 | 0.39 | 1014.3 | |
| 20260502210036 | 0 | 283 | 0.0 | 5.0 | 0.00 | 0.39 | 0.39 | 1014.3 | |
| 20260502204531 | 0 | 283 | 0.0 | 0.0 | 0.00 | 0.39 | 0.39 | 1014.3 | |
| 20260502203028 | 0 | 283 | 0.0 | 5.0 | 0.00 | 0.39 | 0.39 | 1014.2 | |
| 20260502201527 | 0 | 283 | 1.0 | 5.0 | 0.01 | 0.39 | 0.39 | 1014.3 | |
| 20260502200020 | 0 | 283 | 0.0 | 7.0 | 0.01 | 0.39 | 0.39 | 1014.4 | |
| 20260502194514 | 0 | 283 | 4.0 | 9.0 | 0.01 | 0.39 | 0.39 | 1014.4 | |
| 20260502193010 | 0 | 281 | 5.0 | 11.0 | 0.02 | 0.39 | 0.39 | 1014.4 | |
| 20260502191506 | 0 | 320 | 1.0 | 5.0 | 0.01 | 0.39 | 0.39 | 1014.4 |